| time (UTC) | temp F | wind direction | speed MPH | gust MPH | rain 1hr in | rain 24hr in | rain mn in | humidity % | barometer mb |
| 20260904114556 | 49 | 125 | 0.0 | 0.0 | 0.00 | 0.27 | 0.01 | 98 | 1010.5 |
| 20260904113100 | 49 | 125 | 0.0 | 0.0 | 0.00 | 0.27 | 0.01 | 98 | 1010.6 |
| 20260904111553 | 48 | 111 | 0.0 | 0.0 | 0.01 | 0.27 | 0.01 | 98 | 1010.4 |
| 20260904110056 | 48 | 111 | 0.0 | 0.0 | 0.01 | 0.27 | 0.01 | 98 | 1010.4 |
| 20260904104559 | 48 | 42 | 0.0 | 0.0 | 0.01 | 0.32 | 0.01 | 98 | 1010.2 |
| 20260904103053 | 48 | 42 | 0.0 | 0.0 | 0.01 | 0.32 | 0.01 | 98 | 1010.1 |
| 20260904101603 | 47 | 42 | 0.0 | 0.0 | 0.00 | 0.31 | 0.00 | 97 | 1010.0 |
| 20260904100049 | 47 | 42 | 0.0 | 0.0 | 0.00 | 0.31 | 0.00 | 97 | 1010.0 |
| 20260904094551 | 47 | 42 | 0.0 | 0.0 | 0.00 | 0.31 | 0.00 | 97 | 1010.1 |
| 20260904093109 | 47 | 42 | 0.0 | 0.0 | 0.00 | 0.31 | 0.00 | 97 | 1010.2 |
| 20260904091547 | 47 | 42 | 0.0 | 0.0 | 0.00 | 0.31 | 0.00 | 97 | 1010.1 |
| 20260904090050 | 47 | 42 | 0.0 | 0.0 | 0.00 | 0.31 | 0.00 | 97 | 1010.3 |
| 20260904084547 | 48 | 42 | 0.0 | 0.0 | 0.00 | 0.32 | 0.00 | 97 | 1010.2 |
| 20260904083044 | 48 | 34 | 0.0 | 0.0 | 0.00 | 0.32 | 0.00 | 97 | 1010.1 |
| 20260904081544 | 48 | 34 | 0.0 | 0.0 | 0.00 | 0.32 | 0.00 | 97 | 1010.0 |
| 20260904080042 | 48 | 34 | 0.0 | 0.0 | 0.00 | 0.32 | 0.00 | 97 | 1010.1 |
| 20260904074540 | 48 | 34 | 0.0 | 0.0 | 0.00 | 0.32 | 0.00 | 96 | 1010.1 |
| 20260904073039 | 48 | 34 | 0.0 | 0.0 | 0.00 | 0.32 | 0.00 | 96 | 1010.1 |
| 20260904071535 | 49 | 34 | 0.0 | 0.0 | 0.00 | 0.32 | 0.00 | 96 | 1010.1 |
| 20260904070044 | 49 | 34 | 0.0 | 0.0 | 0.00 | 0.32 | 0.00 | 96 | 1010.1 |
| 20260904064538 | 50 | 34 | 0.0 | 0.0 | 0.00 | 0.33 | 0.32 | 96 | 1010.0 |
| 20260904063028 | 51 | 33 | 0.0 | 0.0 | 0.00 | 0.33 | 0.32 | 96 | 1009.9 |
| 20260904061529 | 51 | 33 | 0.0 | 0.0 | 0.00 | 0.33 | 0.32 | 96 | 1009.8 |
| 20260904060028 | 51 | 33 | 0.0 | 0.0 | 0.00 | 0.33 | 0.32 | 96 | 1009.8 |
| 20260904054532 | 51 | 33 | 0.0 | 0.0 | 0.00 | 0.33 | 0.32 | 96 | 1010.0 |
| 20260904053025 | 51 | 33 | 0.0 | 0.0 | 0.00 | 0.33 | 0.32 | 95 | 1009.8 |
| 20260904051523 | 51 | 33 | 0.0 | 0.0 | 0.00 | 0.33 | 0.32 | 95 | 1009.8 |
| 20260904050022 | 52 | 33 | 0.0 | 0.0 | 0.00 | 0.33 | 0.32 | 94 | 1009.7 |
| 20260904044530 | 52 | 33 | 0.0 | 0.0 | 0.00 | 0.33 | 0.32 | 94 | 1009.8 |
| 20260904043018 | 52 | 33 | 0.0 | 0.0 | 0.00 | 0.33 | 0.32 | 93 | 1009.7 |
| 20260904041516 | 53 | 33 | 0.0 | 0.0 | 0.00 | 0.33 | 0.32 | 92 | 1009.8 |
| 20260904040015 | 53 | 33 | 0.0 | 0.0 | 0.00 | 0.33 | 0.32 | 91 | 1009.8 |
| 20260904034529 | 54 | 33 | 0.0 | 0.0 | 0.00 | 0.33 | 0.32 | 91 | 1009.8 |
| 20260904033011 | 55 | 33 | 0.0 | 0.0 | 0.00 | 0.33 | 0.32 | 90 | 1009.4 |
| 20260904031513 | 56 | 34 | 0.0 | 0.0 | 0.00 | 0.33 | 0.32 | 89 | 1009.2 |
| 20260904030009 | 56 | 34 | 0.0 | 0.0 | 0.00 | 0.33 | 0.32 | 88 | 1009.2 |
| 20260904024509 | 57 | 34 | 0.0 | 0.0 | 0.00 | 0.33 | 0.32 | 85 | 1009.1 |
| 20260904023008 | 57 | 35 | 0.0 | 2.0 | 0.00 | 0.33 | 0.32 | 86 | 1009.1 |
| 20260904021508 | 58 | 34 | 0.0 | 3.0 | 0.00 | 0.33 | 0.32 | 85 | 1009.0 |
| 20260904020008 | 59 | 84 | 0.0 | 0.0 | 0.00 | 0.33 | 0.32 | 83 | 1008.8 |
| 20260904014507 | 59 | 84 | 0.0 | 1.0 | 0.00 | 0.33 | 0.32 | 82 | 1008.6 |
| 20260904013007 | 60 | 114 | 0.0 | 3.0 | 0.00 | 0.33 | 0.32 | 81 | 1008.6 |
| 20260904011514 | 60 | 117 | 1.0 | 7.0 | 0.00 | 0.33 | 0.32 | 80 | 1008.6 |
| 20260904010112 | 61 | 101 | 1.0 | 6.0 | 0.00 | 0.33 | 0.32 | 79 | 1008.6 |
| 20260904004502 | 61 | 134 | 1.0 | 6.0 | 0.00 | 0.33 | 0.32 | 78 | 1008.8 |
| 20260904003001 | 64 | 97 | 0.0 | 7.0 | 0.00 | 0.33 | 0.32 | 76 | 1008.6 |
| 20260904001600 | 64 | 160 | 0.0 | 9.0 | 0.00 | 0.33 | 0.32 | 77 | 1008.9 |
| 20260903234557 | 62 | 106 | 1.0 | 9.0 | 0.00 | 0.33 | 0.32 | 82 | 1008.9 |
| 20260903233056 | 62 | 123 | 0.0 | 2.0 | 0.00 | 0.33 | 0.32 | 83 | 1009.0 |
| 20260903231555 | 60 | 101 | 0.0 | 4.0 | 0.00 | 0.33 | 0.32 | 84 | 1009.1 |
| 20260903230056 | 61 | 111 | 0.0 | 2.0 | 0.00 | 0.33 | 0.32 | 85 | 1009.1 |
| 20260903224556 | 60 | 117 | 0.0 | 3.0 | 0.00 | 0.33 | 0.32 | 85 | 1009.0 |
| 20260903223054 | 60 | 74 | 0.0 | 5.0 | 0.00 | 0.33 | 0.32 | 84 | 1009.0 |
| 20260903221554 | 60 | 105 | 0.0 | 5.0 | 0.00 | 0.33 | 0.32 | 83 | 1009.1 |
| 20260903220104 | 60 | 110 | 2.0 | 10.0 | 0.00 | 0.33 | 0.32 | 80 | 1009.1 |
| 20260903214552 | 61 | 106 | 0.0 | 7.0 | 0.00 | 0.33 | 0.32 | 81 | 1009.1 |
| 20260903213057 | 62 | 143 | 3.0 | 10.0 | 0.00 | 0.33 | 0.32 | 77 | 1009.0 |
| 20260903211553 | 62 | 105 | 4.0 | 12.0 | 0.00 | 0.33 | 0.32 | 78 | 1008.9 |
| 20260903210053 | 63 | 107 | 3.0 | 8.0 | 0.00 | 0.33 | 0.32 | 79 | 1008.7 |
| 20260903204546 | 61 | 219 | 1.0 | 4.0 | 0.00 | 0.35 | 0.32 | 83 | 1008.6 |
| 20260903203106 | 62 | 201 | 0.0 | 4.0 | 0.00 | 0.35 | 0.32 | 82 | 1008.5 |
| 20260903201544 | 63 | 101 | 1.0 | 5.0 | 0.00 | 0.35 | 0.32 | 80 | 1008.4 |
| 20260903200040 | 62 | 89 | 6.0 | 10.0 | 0.00 | 0.35 | 0.32 | 83 | 1008.6 |
| 20260903194539 | 61 | 97 | 0.0 | 6.0 | 0.00 | 0.38 | 0.32 | 85 | 1008.6 |
| 20260903193038 | 60 | 66 | 2.0 | 9.0 | 0.00 | 0.38 | 0.32 | 89 | 1008.7 |
| 20260903191533 | 59 | 93 | 2.0 | 10.0 | 0.01 | 0.38 | 0.32 | 89 | 1008.7 |
| 20260903190032 | 59 | 108 | 2.0 | 9.0 | 0.01 | 0.38 | 0.32 | 92 | 1008.7 |
| 20260903184534 | 59 | 96 | 0.0 | 10.0 | 0.03 | 0.39 | 0.32 | 93 | 1008.5 |
| 20260903183036 | 58 | 115 | 1.0 | 10.0 | 0.04 | 0.39 | 0.32 | 94 | 1008.6 |
| 20260903181526 | 57 | 128 | 0.0 | 4.0 | 0.03 | 0.38 | 0.31 | 95 | 1008.8 |
| 20260903180026 | 57 | 136 | 0.0 | 7.0 | 0.03 | 0.38 | 0.31 | 95 | 1008.7 |
| 20260903174524 | 57 | 124 | 1.0 | 9.0 | 0.01 | 0.36 | 0.28 | 93 | 1008.5 |
| 20260903173021 | 57 | 113 | 0.0 | 10.0 | 0.00 | 0.35 | 0.28 | 93 | 1008.5 |
| 20260903171520 | 57 | 115 | 2.0 | 11.0 | 0.00 | 0.35 | 0.28 | 94 | 1008.3 |
| 20260903170018 | 57 | 108 | 1.0 | 10.0 | 0.00 | 0.35 | 0.28 | 94 | 1008.3 |
| 20260903164518 | 57 | 159 | 2.0 | 7.0 | 0.00 | 0.35 | 0.28 | 96 | 1008.1 |
| 20260903163015 | 56 | 91 | 1.0 | 7.0 | 0.00 | 0.35 | 0.28 | 96 | 1008.1 |
| 20260903161514 | 55 | 119 | 0.0 | 6.0 | 0.00 | 0.35 | 0.28 | 96 | 1008.1 |
| 20260903160019 | 55 | 98 | 0.0 | 8.0 | 0.00 | 0.35 | 0.28 | 97 | 1008.0 |
| 20260903154513 | 55 | 95 | 0.0 | 5.0 | 0.00 | 0.35 | 0.28 | 97 | 1008.2 |
| 20260903153012 | 55 | 99 | 0.0 | 4.0 | 0.01 | 0.35 | 0.28 | 97 | 1008.0 |
| 20260903151511 | 55 | 94 | 0.0 | 6.0 | 0.03 | 0.35 | 0.28 | 97 | 1007.9 |
| 20260903150016 | 54 | 96 | 0.0 | 6.0 | 0.05 | 0.35 | 0.28 | 97 | 1008.0 |
| 20260903144533 | 54 | 146 | 0.0 | 3.0 | 0.05 | 0.35 | 0.28 | 97 | 1007.8 |
| 20260903143007 | 54 | 115 | 0.0 | 1.0 | 0.03 | 0.33 | 0.26 | 97 | 1007.6 |
| 20260903141506 | 54 | 109 | 0.0 | 1.0 | 0.04 | 0.32 | 0.25 | 97 | 1007.5 |
| 20260903140006 | 54 | 120 | 0.0 | 1.0 | 0.04 | 0.30 | 0.23 | 97 | 1007.5 |
| 20260903134504 | 54 | 120 | 0.0 | 3.0 | 0.05 | 0.30 | 0.23 | 97 | 1007.4 |
| 20260903133003 | 54 | 115 | 0.0 | 5.0 | 0.06 | 0.30 | 0.23 | 97 | 1007.4 |
| 20260903131601 | 54 | 64 | 1.0 | 7.0 | 0.06 | 0.28 | 0.21 | 97 | 1007.2 |
| 20260903130100 | 54 | 113 | 1.0 | 9.0 | 0.08 | 0.26 | 0.19 | 97 | 1006.9 |
| 20260903124610 | 54 | 80 | 0.0 | 6.0 | 0.09 | 0.25 | 0.18 | 96 | 1006.9 |
| 20260903123059 | 54 | 109 | 0.0 | 3.0 | 0.08 | 0.24 | 0.17 | 96 | 1006.7 |
| 20260903121606 | 54 | 95 | 0.0 | 5.0 | 0.08 | 0.22 | 0.15 | 96 | 1006.9 |